Location: Navajo
(48.7922°N, 105.0603°W)
Time: 12:59:21
(UTC+00:00)

NANOSAT C BR1 - Visible Passes

Search period start: 28 June 2022 00:00
Search period end: 08 July 2022 00:00
Orbit: 583 x 601 km, 98.0° (Epoch: 27 June)

Date Brightness Start Highest point End Pass type
(mag) Time Alt. Az. Time Alt. Az. Time Alt. Az.
28 Jun ? 08:49:01 10° NNE 08:53:03 44° E 08:56:18 15° SSE visible
29 Jun ? 08:57:41 10° NNE 09:01:50 54° E 09:05:07 15° S visible
30 Jun ? 09:06:23 10° NNE 09:10:34 67° ESE 09:13:56 16° S visible
01 Jul ? 09:15:05 10° NNE 09:19:19 82° ESE 09:22:44 15° S visible
02 Jul ? 07:50:33 10° ENE 07:51:56 11° E 07:53:18 10° ESE visible
02 Jul ? 09:23:49 10° NNE 09:28:02 82° WNW 09:31:33 15° SSW visible
03 Jul ? 07:58:32 10° ENE 08:00:45 14° E 08:02:58 10° ESE visible
03 Jul ? 09:32:33 10° N 09:36:46 67° WNW 09:40:20 14° SSW visible
04 Jul ? 08:06:48 10° NE 08:09:35 17° E 08:12:20 10° SE visible
04 Jul ? 09:41:19 10° N 09:45:27 55° WNW 09:49:08 13° SSW visible
05 Jul ? 08:15:13 10° NE 08:18:23 20° E 08:21:20 11° SE visible
05 Jul ? 09:50:06 10° N 09:54:08 45° WNW 09:57:55 11° SW visible
06 Jul ? 08:23:42 10° NE 08:27:10 24° E 08:30:07 12° SE visible
06 Jul ? 09:58:54 10° N 10:02:49 37° WNW 10:06:42 10° SW visible
07 Jul ? 08:32:13 10° NE 08:35:56 29° E 08:38:54 14° SSE visible
07 Jul ? 10:07:44 10° N 10:11:28 31° WNW 10:15:12 10° SW visible
